Time,TemperatureF,DewpointF,PressureIn,WindDirection,WindDirectionDegrees,WindSpeedMPH,WindSpeedGustMPH,Humidity,HourlyPrecipIn,Conditions,Clouds,dailyrainin,SoftwareType,DateUTC
2013-04-29 00:13:00,74.7,69.0,29.97,SSE,164,0.0,0.0,82,0.00,,,0.00,weatherlink.com 1.10,2013-04-29 10:13:00,
2013-04-29 00:32:00,75.0,69.0,29.96,West,278,0.0,1.0,81,0.00,,,0.00,weatherlink.com 1.10,2013-04-29 10:32:00,
2013-04-29 00:50:00,74.9,69.0,29.95,ESE,103,0.0,0.0,82,0.00,,,0.00,weatherlink.com 1.10,2013-04-29 10:50:00,
2013-04-29 01:08:00,75.2,69.0,29.95,SSE,167,0.0,0.0,80,0.00,,,0.00,weatherlink.com 1.10,2013-04-29 11:08:00,
2013-04-29 01:26:00,75.6,69.0,29.94,East,88,0.0,0.0,80,0.00,,,0.00,weatherlink.com 1.10,2013-04-29 11:26:00,
2013-04-29 01:44:00,75.6,69.0,29.94,NNE,30,0.0,1.0,81,0.00,,,0.00,weatherlink.com 1.10,2013-04-29 11:44:00,
2013-04-29 02:02:00,75.3,69.0,29.93,NNE,32,0.0,2.0,81,0.00,,,0.00,weatherlink.com 1.10,2013-04-29 12:02:00,
2013-04-29 02:20:00,74.9,69.0,29.93,NE,44,0.0,0.0,83,0.00,,,0.00,weatherlink.com 1.10,2013-04-29 12:20:00,
2013-04-29 02:38:00,74.6,68.0,29.92,SE,144,0.0,1.0,81,0.00,,,0.00,weatherlink.com 1.10,2013-04-29 12:38:00,
2013-04-29 02:57:00,74.4,68.0,29.91,South,190,0.0,0.0,81,0.00,,,0.00,weatherlink.com 1.10,2013-04-29 12:57:00,
2013-04-29 03:15:00,74.6,68.0,29.91,NNE,16,0.0,6.0,81,0.01,,,0.01,weatherlink.com 1.10,2013-04-29 13:15:00,
2013-04-29 03:33:00,73.7,69.0,29.91,NNE,16,0.0,0.0,85,0.01,,,0.01,weatherlink.com 1.10,2013-04-29 13:33:00,
2013-04-29 03:51:00,73.8,69.0,29.90,NE,48,0.0,2.0,85,0.01,,,0.01,weatherlink.com 1.10,2013-04-29 13:51:00,
2013-04-29 04:10:00,73.8,69.0,29.91,NE,40,3.0,6.0,84,0.01,,,0.01,weatherlink.com 1.10,2013-04-29 14:10:00,
2013-04-29 04:28:00,74.4,69.0,29.91,ESE,102,0.0,1.0,82,0.00,,,0.01,weatherlink.com 1.10,2013-04-29 14:28:00,
2013-04-29 04:46:00,75.4,69.0,29.91,ESE,113,0.0,5.0,80,0.00,,,0.01,weatherlink.com 1.10,2013-04-29 14:46:00,
2013-04-29 05:05:00,75.4,68.0,29.92,South,173,1.0,5.0,78,0.00,,,0.01,weatherlink.com 1.10,2013-04-29 15:05:00,
2013-04-29 05:23:00,74.6,68.0,29.92,North,351,0.0,3.0,80,0.00,,,0.01,weatherlink.com 1.10,2013-04-29 15:23:00,
2013-04-29 05:41:00,74.4,68.0,29.92,East,96,0.0,1.0,80,0.00,,,0.01,weatherlink.com 1.10,2013-04-29 15:41:00,
2013-04-29 05:59:00,74.3,68.0,29.92,SSE,167,0.0,3.0,82,0.00,,,0.01,weatherlink.com 1.10,2013-04-29 15:59:00,
2013-04-29 06:18:00,74.3,69.0,29.93,West,276,2.0,3.0,83,0.00,,,0.01,weatherlink.com 1.10,2013-04-29 16:18:00,
2013-04-29 06:36:00,74.4,69.0,29.93,South,169,0.0,2.0,83,0.00,,,0.01,weatherlink.com 1.10,2013-04-29 16:36:00,
2013-04-29 06:56:00,75.7,69.0,29.93,South,191,2.0,4.0,80,0.00,,,0.01,weatherlink.com 1.10,2013-04-29 16:56:00,
2013-04-29 07:14:00,76.8,69.0,29.93,SE,137,0.0,6.0,78,0.00,,,0.01,weatherlink.com 1.10,2013-04-29 17:14:00,
2013-04-29 07:32:00,78.4,70.0,29.93,East,94,0.0,3.0,75,0.00,,,0.01,weatherlink.com 1.10,2013-04-29 17:32:00,
2013-04-29 07:51:00,78.5,69.0,29.94,SSE,163,0.0,4.0,73,0.00,,,0.01,weatherlink.com 1.10,2013-04-29 17:51:00,
2013-04-29 08:09:00,78.3,69.0,29.94,South,184,3.0,7.0,74,0.00,,,0.01,weatherlink.com 1.10,2013-04-29 18:09:00,
2013-04-29 08:27:00,78.9,71.0,29.94,ESE,112,0.0,3.0,76,0.00,,,0.01,weatherlink.com 1.10,2013-04-29 18:27:00,
2013-04-29 08:46:00,79.6,70.0,29.95,SE,141,0.0,4.0,73,0.00,,,0.01,weatherlink.com 1.10,2013-04-29 18:46:00,
2013-04-29 09:04:00,79.9,71.0,29.95,South,187,0.0,7.0,75,0.00,,,0.01,weatherlink.com 1.10,2013-04-29 19:04:00,
2013-04-29 09:22:00,80.5,70.0,29.94,SE,124,0.0,8.0,71,0.00,,,0.01,weatherlink.com 1.10,2013-04-29 19:22:00,
2013-04-29 09:40:00,80.4,71.0,29.95,SSE,153,0.0,5.0,72,0.00,,,0.01,weatherlink.com 1.10,2013-04-29 19:40:00,
2013-04-29 09:59:00,80.1,69.0,29.95,SSE,168,0.0,4.0,69,0.00,,,0.01,weatherlink.com 1.10,2013-04-29 19:59:00,
2013-04-29 10:18:00,80.4,71.0,29.95,ESE,118,2.0,6.0,72,0.00,,,0.01,weatherlink.com 1.10,2013-04-29 20:18:00,
2013-04-29 10:36:00,81.1,71.0,29.94,East,91,2.0,7.0,72,0.00,,,0.01,weatherlink.com 1.10,2013-04-29 20:36:00,
2013-04-29 10:54:00,81.4,71.0,29.94,South,172,1.0,5.0,71,0.00,,,0.01,weatherlink.com 1.10,2013-04-29 20:54:00,
2013-04-29 11:12:00,82.4,71.0,29.94,South,169,1.0,9.0,68,0.00,,,0.01,weatherlink.com 1.10,2013-04-29 21:12:00,
2013-04-29 11:32:00,82.3,71.0,29.93,SSW,192,2.0,7.0,69,0.00,,,0.01,weatherlink.com 1.10,2013-04-29 21:32:00,
2013-04-29 11:50:00,81.6,73.0,29.93,SW,219,0.0,6.0,74,0.00,,,0.01,weatherlink.com 1.10,2013-04-29 21:50:00,
2013-04-29 12:08:00,82.1,71.0,29.93,SSE,165,0.0,5.0,69,0.00,,,0.01,weatherlink.com 1.10,2013-04-29 22:08:00,
2013-04-29 12:26:00,83.2,72.0,29.92,South,187,3.0,6.0,69,0.00,,,0.01,weatherlink.com 1.10,2013-04-29 22:26:00,
2013-04-29 12:44:00,82.9,73.0,29.91,SSE,163,2.0,8.0,71,0.00,,,0.01,weatherlink.com 1.10,2013-04-29 22:44:00,
2013-04-29 13:03:00,82.9,73.0,29.91,NNW,333,1.0,6.0,71,0.00,,,0.01,weatherlink.com 1.10,2013-04-29 23:03:00,
2013-04-29 13:21:00,83.3,72.0,29.91,SSE,160,2.0,7.0,70,0.00,,,0.01,weatherlink.com 1.10,2013-04-29 23:21:00,
2013-04-29 13:39:00,83.6,71.0,29.90,SSW,205,2.0,7.0,66,0.00,,,0.01,weatherlink.com 1.10,2013-04-29 23:39:00,
2013-04-29 13:57:00,83.8,71.0,29.90,SSE,162,4.0,6.0,65,0.00,,,0.01,weatherlink.com 1.10,2013-04-29 23:57:00,
2013-04-29 15:02:00,84.3,71.0,29.89,SSE,164,2.0,7.0,65,0.00,,,0.01,weatherlink.com 1.10,2013-04-30 01:02:00,
2013-04-29 15:20:00,85.0,71.0,29.88,SSE,159,3.0,5.0,64,0.00,,,0.01,weatherlink.com 1.10,2013-04-30 01:20:00,
2013-04-29 15:38:00,84.0,70.0,29.88,SSW,203,0.0,7.0,63,0.00,,,0.01,weatherlink.com 1.10,2013-04-30 01:38:00,
2013-04-29 15:57:00,83.0,70.0,29.88,South,180,3.0,7.0,65,0.00,,,0.01,weatherlink.com 1.10,2013-04-30 01:57:00,
2013-04-29 16:15:00,81.9,71.0,29.88,South,172,0.0,4.0,69,0.00,,,0.01,weatherlink.com 1.10,2013-04-30 02:15:00,
2013-04-29 16:34:00,82.5,70.0,29.88,SE,134,0.0,7.0,66,0.00,,,0.01,weatherlink.com 1.10,2013-04-30 02:34:00,
2013-04-29 16:52:00,82.5,70.0,29.88,SSE,150,0.0,5.0,65,0.00,,,0.01,weatherlink.com 1.10,2013-04-30 02:52:00,
2013-04-29 17:56:00,79.4,70.0,29.88,South,178,1.0,5.0,72,0.00,,,0.01,weatherlink.com 1.10,2013-04-30 03:56:00,
2013-04-29 18:15:00,78.5,69.0,29.89,South,173,0.0,2.0,72,0.00,,,0.01,weatherlink.com 1.10,2013-04-30 04:15:00,
2013-04-29 18:34:00,78.2,68.0,29.90,South,181,0.0,2.0,72,0.00,,,0.01,weatherlink.com 1.10,2013-04-30 04:34:00,
2013-04-29 18:52:00,77.7,69.0,29.90,South,180,0.0,1.0,74,0.00,,,0.01,weatherlink.com 1.10,2013-04-30 04:52:00,
2013-04-29 19:10:00,77.0,68.0,29.91,South,180,0.0,1.0,74,0.00,,,0.01,weatherlink.com 1.10,2013-04-30 05:10:00,
2013-04-29 19:30:00,76.5,68.0,29.92,South,187,1.0,1.0,76,0.00,,,0.01,weatherlink.com 1.10,2013-04-30 05:30:00,
2013-04-29 19:48:00,75.9,68.0,29.93,South,186,0.0,0.0,77,0.00,,,0.01,weatherlink.com 1.10,2013-04-30 05:48:00,
2013-04-29 20:06:00,75.5,68.0,29.93,SSE,162,0.0,2.0,78,0.00,,,0.01,weatherlink.com 1.10,2013-04-30 06:06:00,
2013-04-29 20:24:00,75.5,68.0,29.94,South,171,2.0,2.0,77,0.00,,,0.01,weatherlink.com 1.10,2013-04-30 06:24:00,
2013-04-29 20:42:00,75.6,69.0,29.95,SE,145,0.0,0.0,79,0.00,,,0.01,weatherlink.com 1.10,2013-04-30 06:42:00,
2013-04-29 21:01:00,75.5,69.0,29.95,South,176,1.0,4.0,79,0.00,,,0.01,weatherlink.com 1.10,2013-04-30 07:01:00,
2013-04-29 21:19:00,74.9,68.0,29.95,South,173,0.0,5.0,80,0.00,,,0.01,weatherlink.com 1.10,2013-04-30 07:19:00,
2013-04-29 21:37:00,75.1,69.0,29.96,South,186,0.0,1.0,80,0.00,,,0.01,weatherlink.com 1.10,2013-04-30 07:37:00,
2013-04-29 21:55:00,75.1,69.0,29.96,South,186,0.0,0.0,81,0.00,,,0.01,weatherlink.com 1.10,2013-04-30 07:55:00,
2013-04-29 22:13:00,74.5,69.0,29.95,South,186,0.0,0.0,83,0.00,,,0.01,weatherlink.com 1.10,2013-04-30 08:13:00,
2013-04-29 22:32:00,73.9,69.0,29.95,South,186,0.0,0.0,85,0.00,,,0.01,weatherlink.com 1.10,2013-04-30 08:32:00,
2013-04-29 22:50:00,73.4,69.0,29.95,South,186,0.0,0.0,86,0.00,,,0.01,weatherlink.com 1.10,2013-04-30 08:50:00,
2013-04-29 23:08:00,72.8,68.0,29.95,South,187,0.0,0.0,86,0.00,,,0.01,weatherlink.com 1.10,2013-04-30 09:08:00,
2013-04-29 23:26:00,72.1,68.0,29.95,South,187,0.0,0.0,87,0.00,,,0.01,weatherlink.com 1.10,2013-04-30 09:26:00,
2013-04-29 23:44:00,71.4,68.0,29.94,South,187,0.0,0.0,88,0.00,,,0.01,weatherlink.com 1.10,2013-04-30 09:44:00,